When you browse on this site, cookies collect data to enhance your experience and personalize the content and advertising you see.
Visit our Privacy Policy to learn more. By continuing to use the site, you agree to this use of cookies and data.
  • En España
  • Lista de países
  • Para 7 días
  • Temperatura del agua
  • Mapa Satelital
  • El tiempo en el mapa
  • Informadores
  • user-avatar
    Iniciar sesión

    Tiempo cada hora Verbovo

    Hoy, 20 Julio, Sábado

    Tiempo Temperatura Precipitaciones Viento Presión Humedad
    00:00 +14°C° 0 mm 4 mps 739 mmHg 81%
    01:00 +13°C° 0 mm 4 mps 739 mmHg 83%
    02:00 +13°C° 0 mm 4 mps 740 mmHg 85%
    03:00 +13°C° 0 mm 4 mps 740 mmHg 86%
    04:00 +12°C° 0 mm 4 mps 740 mmHg 88%
    05:00 +12°C° 0 mm 4 mps 741 mmHg 90%
    06:00 +13°C° 0 mm 4 mps 741 mmHg 86%
    07:00 +15°C° 0 mm 4 mps 741 mmHg 82%
    08:00 +18°C° 0 mm 4 mps 741 mmHg 78%
    09:00 +19°C° 0 mm 4 mps 741 mmHg 74%
    10:00 +20°C° 0 mm 5 mps 742 mmHg 70%
    11:00 +21°C° 0 mm 5 mps 742 mmHg 66%
    12:00 +21°C° 0 mm 5 mps 742 mmHg 65%
    13:00 +22°C° 0 mm 5 mps 742 mmHg 64%
    14:00 +22°C° 0 mm 4 mps 742 mmHg 63%
    15:00 +22°C° 0 mm 4 mps 742 mmHg 65%
    16:00 +22°C° 0 mm 4 mps 742 mmHg 67%
    17:00 +21°C° 0 mm 4 mps 743 mmHg 69%
    18:00 +20°C° 0 mm 3 mps 742 mmHg 73%
    19:00 +18°C° 0 mm 3 mps 742 mmHg 76%
    20:00 +16°C° 0 mm 3 mps 742 mmHg 79%
    21:00 +14°C° 0 mm 3 mps 742 mmHg 79%
    22:00 +14°C° 0 mm 2 mps 743 mmHg 78%
    23:00 +13°C° 0 mm 2 mps 743 mmHg 77%

    Mañana, 21 Julio, Domingo

    Tiempo Temperatura Precipitaciones Viento Presión Humedad
    00:00 +13°C° 0 mm 2 mps 743 mmHg 79%
    01:00 +13°C° 0 mm 2 mps 743 mmHg 81%
    02:00 +12°C° 0 mm 2 mps 743 mmHg 83%
    03:00 +13°C° 0 mm 2 mps 743 mmHg 85%
    04:00 +13°C° 0 mm 2 mps 743 mmHg 86%
    05:00 +13°C° 0 mm 2 mps 743 mmHg 88%
    06:00 +15°C° 0 mm 2 mps 744 mmHg 84%
    07:00 +17°C° 0 mm 2 mps 744 mmHg 80%
    08:00 +19°C° 0 mm 2 mps 744 mmHg 77%
    09:00 +20°C° 0 mm 2 mps 744 mmHg 73%
    10:00 +21°C° 0 mm 2 mps 744 mmHg 69%
    11:00 +23°C° 0 mm 2 mps 744 mmHg 65%
    12:00 +24°C° 0 mm 3 mps 744 mmHg 64%
    13:00 +24°C° 0 mm 3 mps 744 mmHg 63%
    14:00 +25°C° 0 mm 3 mps 744 mmHg 62%
    15:00 +24°C° 0 mm 3 mps 744 mmHg 64%
    16:00 +24°C° 0 mm 3 mps 743 mmHg 67%
    17:00 +24°C° 0 mm 3 mps 743 mmHg 70%
    18:00 +21°C° 0 mm 2 mps 743 mmHg 75%
    19:00 +21°C° 0 mm 1 mps 743 mmHg 80%
    20:00 +19°C° 0 mm 1 mps 743 mmHg 86%
    21:00 +18°C° 0 mm 1 mps 743 mmHg 86%
    22:00 +16°C° 0 mm 1 mps 743 mmHg 86%
    23:00 +15°C° 0 mm 0 mps 743 mmHg 87%

    Pasado mañana, 22 Julio, Lunes

    Tiempo Temperatura Precipitaciones Viento Presión Humedad
    00:00 +14°C° 0 mm 0 mps 743 mmHg 87%
    01:00 +14°C° 0 mm 0 mps 743 mmHg 87%
    02:00 +14°C° 0 mm 0 mps 743 mmHg 87%
    03:00 +15°C° 0 mm 1 mps 743 mmHg 87%
    04:00 +15°C° 0 mm 1 mps 743 mmHg 87%
    05:00 +15°C° 0 mm 1 mps 743 mmHg 87%
    06:00 +18°C° 0 mm 1 mps 743 mmHg 83%
    07:00 +19°C° 0 mm 2 mps 742 mmHg 80%
    08:00 +20°C° 0 mm 2 mps 742 mmHg 76%
    09:00 +21°C° 0.2 mm 2 mps 742 mmHg 74%
    10:00 +23°C° 0.2 mm 2 mps 742 mmHg 72%
    11:00 +24°C° 0.2 mm 3 mps 742 mmHg 71%
    12:00 +22°C° 1.2 mm 3 mps 741 mmHg 76%
    13:00 +21°C° 1.2 mm 3 mps 741 mmHg 82%
    14:00 +20°C° 1.2 mm 3 mps 741 mmHg 87%
    15:00 +19°C° 0.7 mm 2 mps 741 mmHg 90%
    16:00 +18°C° 0.7 mm 2 mps 740 mmHg 92%
    17:00 +19°C° 0.7 mm 1 mps 740 mmHg 95%
    18:00 +17°C° 0.2 mm 2 mps 740 mmHg 95%
    19:00 +17°C° 0.2 mm 2 mps 740 mmHg 96%
    20:00 +16°C° 0.2 mm 2 mps 740 mmHg 96%
    21:00 +16°C° 0 mm 2 mps 740 mmHg 97%
    22:00 +15°C° 0 mm 2 mps 740 mmHg 97%
    23:00 +15°C° 0 mm 2 mps 740 mmHg 97%

    23 Julio, Martes

    Tiempo Temperatura Precipitaciones Viento Presión Humedad
    00:00 +15°C° 0 mm 2 mps 739 mmHg 97%
    01:00 +16°C° 0 mm 2 mps 739 mmHg 98%
    02:00 +16°C° 0 mm 1 mps 739 mmHg 98%
    03:00 +16°C° 0.1 mm 1 mps 739 mmHg 98%
    04:00 +16°C° 0.1 mm 1 mps 739 mmHg 98%
    05:00 +16°C° 0.1 mm 1 mps 739 mmHg 98%
    06:00 +18°C° 0 mm 1 mps 739 mmHg 97%
    07:00 +18°C° 0 mm 1 mps 739 mmHg 95%
    08:00 +17°C° 0 mm 2 mps 739 mmHg 94%
    09:00 +18°C° 0.2 mm 2 mps 739 mmHg 93%
    10:00 +18°C° 0.2 mm 3 mps 739 mmHg 93%
    11:00 +18°C° 0.2 mm 3 mps 739 mmHg 92%
    12:00 +18°C° 0.1 mm 4 mps 739 mmHg 91%
    13:00 +18°C° 0.1 mm 4 mps 739 mmHg 90%
    14:00 +19°C° 0.1 mm 5 mps 739 mmHg 88%
    15:00 +17°C° 0.1 mm 5 mps 739 mmHg 89%
    16:00 +17°C° 0.1 mm 5 mps 739 mmHg 90%
    17:00 +17°C° 0.1 mm 5 mps 739 mmHg 90%
    18:00 +17°C° 0 mm 4 mps 739 mmHg 91%
    19:00 +17°C° 0 mm 4 mps 739 mmHg 91%
    20:00 +17°C° 0 mm 4 mps 739 mmHg 92%
    21:00 +15°C° 0 mm 4 mps 740 mmHg 92%
    22:00 +16°C° 0 mm 3 mps 740 mmHg 93%
    23:00 +16°C° 0 mm 3 mps 740 mmHg 93%

    24 Julio, Miércoles

    Tiempo Temperatura Precipitaciones Viento Presión Humedad
    00:00 +16°C° 0 mm 3 mps 740 mmHg 93%
    01:00 +15°C° 0 mm 4 mps 740 mmHg 93%
    02:00 +15°C° 0 mm 4 mps 740 mmHg 93%
    03:00 +14°C° 0 mm 4 mps 740 mmHg 93%
    04:00 +14°C° 0 mm 4 mps 740 mmHg 93%
    05:00 +14°C° 0 mm 4 mps 740 mmHg 93%
    06:00 +15°C° 0 mm 4 mps 741 mmHg 88%
    07:00 +18°C° 0 mm 4 mps 741 mmHg 83%
    08:00 +19°C° 0 mm 4 mps 741 mmHg 78%
    09:00 +20°C° 0 mm 4 mps 741 mmHg 75%
    10:00 +21°C° 0 mm 4 mps 742 mmHg 72%
    11:00 +22°C° 0 mm 4 mps 742 mmHg 69%
    12:00 +22°C° 0 mm 4 mps 742 mmHg 66%
    13:00 +23°C° 0 mm 4 mps 742 mmHg 64%
    14:00 +25°C° 0 mm 4 mps 742 mmHg 62%
    15:00 +25°C° 0.1 mm 4 mps 742 mmHg 65%
    16:00 +25°C° 0.1 mm 3 mps 742 mmHg 67%
    17:00 +24°C° 0.1 mm 3 mps 742 mmHg 70%
    18:00 +23°C° 0 mm 2 mps 742 mmHg 75%
    19:00 +20°C° 0 mm 2 mps 742 mmHg 80%
    20:00 +18°C° 0 mm 2 mps 742 mmHg 85%
    21:00 +17°C° 0 mm 2 mps 742 mmHg 87%
    22:00 +16°C° 0 mm 2 mps 743 mmHg 89%
    23:00 +16°C° 0 mm 2 mps 743 mmHg 91%

    25 Julio, Jueves

    Tiempo Temperatura Precipitaciones Viento Presión Humedad
    00:00 +15°C° 0 mm 2 mps 743 mmHg 92%
    01:00 +15°C° 0 mm 2 mps 743 mmHg 93%
    02:00 +15°C° 0 mm 2 mps 743 mmHg 93%
    03:00 +15°C° 0 mm 2 mps 743 mmHg 94%
    04:00 +15°C° 0 mm 2 mps 743 mmHg 94%
    05:00 +14°C° 0 mm 2 mps 743 mmHg 94%
    06:00 +16°C° 0 mm 3 mps 743 mmHg 89%
    07:00 +18°C° 0 mm 3 mps 744 mmHg 84%
    08:00 +19°C° 0 mm 3 mps 744 mmHg 80%
    09:00 +21°C° 0 mm 4 mps 744 mmHg 74%
    10:00 +22°C° 0 mm 4 mps 744 mmHg 69%
    11:00 +25°C° 0 mm 4 mps 744 mmHg 63%
    12:00 +25°C° 0 mm 4 mps 744 mmHg 62%
    13:00 +26°C° 0 mm 4 mps 744 mmHg 60%
    14:00 +26°C° 0 mm 4 mps 744 mmHg 59%
    15:00 +26°C° 0 mm 3 mps 743 mmHg 62%
    16:00 +26°C° 0 mm 3 mps 743 mmHg 65%
    17:00 +26°C° 0 mm 3 mps 743 mmHg 68%
    18:00 +24°C° 0 mm 2 mps 743 mmHg 71%
    19:00 +21°C° 0 mm 2 mps 743 mmHg 73%
    20:00 +20°C° 0 mm 1 mps 743 mmHg 76%
    21:00 +18°C° 0 mm 2 mps 743 mmHg 79%
    22:00 +18°C° 0 mm 2 mps 743 mmHg 83%
    23:00 +17°C° 0 mm 2 mps 743 mmHg 86%
    Mostrar más